Capitol Logistics 447


KSLC
Salt Lake City International Airport
Salt Lake City, Utah, US
KMSP
Minneapolis-St Paul International Airport
Minneapolis, Minnesota, US

Activity Log

Date Flight Route Aircraft Duration
No Flights Yet

Route Details

Aircraft Information
Primary: Boeing 757-200SF
Backup: Boeing 737-800BCF
Route Data
Distance: 860nm
Sched. Duration: 2h 29m
Avg. Duration: 0h 00m (-230m)
Times Flown: 0
Recm'd Route: RUGGD1 OCS CKW MBW BFF ANW SSWAN TORGY3
Planned Altitude: 35,000ft
Origin Wx: KSLC 311154Z 17012G21KT 10SM BKN090 BKN110 11/M02 A3003 RMK AO2 SLP142 70006 T01111022 10117 20111 58007
Dest. Wx: KMSP 311153Z 06003KT 10SM CLR 01/M04 A3018 RMK AO2 SLP225 T00111039 10056 20011 56005
Notes:

Financial History
Total Freight: 0lbs
Average Load: 0lbs/flt
Fuel Used: 0lbs
Avg. Fuel Used: 0lbs/flt
Fuel Expense: $0
Avg. Fuel Expense: $0
Avg. Fuel Cost: $0/lbs
Total Gross Income: $0
Pilot Pay: $0
Total Expenses: $0
Total Revenue: $0
Average Revenue: $0